CAPE
4 5 3 0 0 3 7 4 4 2 2 5 6 1 2 0 0 0 0 0 0 0 0 0 0 0 0 0 0 0 0 0 0 0 0 0 0 0 0 0 0 0 0 0 0
6 1 1 6 4 0 0 0 1 4 3 4 5 5 2 0 0 0 0 0 0 0 0 0 0 0 0 0 0 0 0 0 0 0 0 0 0 0 0 0 0 0 0 0 0
14 11 7 7 10 9 5 4 1 2 5 4 3 2 0 0 0 0 0 0 0 0 0 0 0 0 0 0 0 0 0 0 0 0 0 0 0 0 0 0 0 0 0 1 0
11 9 4 3 4 3 8 6 2 5 4 2 2 1 0 0 0 0 0 0 0 0 0 0 0 0 0 0 0 0 0 0 0 0 0 0 0 0 0 0 0 0 0 0 0
11 12 12 3 4 4 3 4 3 1 6 3 1 1 0 0 0 0 0 0 0 0 0 0 0 0 0 0 0 0 0 0 0 0 0 0 0 0 0 0 0 0 0 0 0
10 10 13 10 3 1 1 2 1 4 3 3 3 6 0 0 0 0 0 0 0 0 0 0 0 0 0 0 0 0 0 0 0 0 0 0 0 0 0 0 0 0 0 0 0
6 2 7 9 6 1 1 3 6 0 2 8 4 4 0 0 0 0 0 0 0 0 0 0 0 0 0 0 0 0 0 0 0 0 0 0 0 0 0 0 0 0 0 0 0
4 0 5 3 5 6 3 3 3 3 4 1 9 4 0 0 0 0 0 0 0 0 0 0 0 0 0 0 0 0 0 0 0 0 0 0 0 0 0 0 0 0 0 0 0
6 7 7 6 8 3 0 1 0 0 0 3 3 1 0 0 0 0 0 0 0 0 0 0 0 0 0 0 0 0 0 0 0 0 0 0 0 0 0 0 0 0 0 0 0
8 7 4 1 1 1 0 0 0 0 0 0 0 0 0 0 0 0 0 0 0 0 0 0 0 0 0 0 0 0 0 0 0 0 0 0 0 0 0 0 0 0 0 0 0
9 8 9 2 4 5 0 0 0 0 0 0 0 0 0 0 0 0 0 0 0 0 0 0 0 0 0 0 0 0 0 0 0 0 0 0 0 0 0 0 0 0 0 0 0
3 3 6 3 0 0 0 0 0 0 0 0 0 0 0 0 0 0 0 0 0 0 0 0 0 0 0 0 0 0 0 0 0 0 0 0 0 0 0 0 0 0 0 0 0
2 4 8 15 0 0 0 0 0 0 0 0 0 0 0 0 0 0 0 0 0 0 0 0 0 0 0 0 0 0 0 0 0 0 0 0 0 0 0 0 0 0 0 0 0
2 6 9 6 0 0 0 0 0 0 0 0 0 0 0 0 0 0 0 0 0 0 0 0 0 0 0 0 0 0 0 0 0 0 0 0 0 0 0 0 0 0 0 0 0
0 1 8 10 4 2 0 0 0 0 0 0 17 0 0 0 0 0 0 0 0 0 0 0 0 0 0 0 0 0 0 0 0 0 0 0 0 0 0 0 0 0 0 0 0
1 2 4 2 2 0 0 0 0 0 0 0 0 0 0 0 0 0 0 0 0 0 0 0 0 0 0 0 0 0 0 0 0 0 0 0 0 0 0 0 0 0 0 0 0
2 0 1 4 2 0 0 0 1 0 0 0 0 0 0 0 0 0 0 0 0 0 0 0 0 0 0 0 0 0 0 0 0 0 0 0 0 0 0 0 0 0 0 0 0
0 0 0 0 0 7 1 8 0 0 0 0 0 0 0 0 0 0 0 0 0 0 0 0 0 0 0 0 0 0 0 0 0 0 0 0 0 0 0 0 0 0 0 0 0
0 0 0 0 0 4 13 0 0 2 0 0 0 0 0 0 0 0 0 0 0 0 0 0 0 0 0 0 0 0 0 0 0 0 0 0 0 0 0 0 0 0 0 0 0
0 0 0 0 1 3 2 0 0 2 0 1 1 1 0 0 0 2 0 1 1 0 0 0 0 0 0 0 0 0 0 0 0 0 0 0 0 0 0 0 0 0 0 0 0
0 0 0 4 6 8 0 0 0 0 0 2 2 6 0 0 15 13 0 0 2 0 0 0 0 0 0 0 0 0 0 0 0 0 0 0 0 0 0 0 0 0 0 0 0
0 0 0 5 0 0 0 3 0 0 6 3 3 1 7 12 0 12 0 1 6 0 0 0 0 0 0 0 0 0 0 0 0 0 0 0 0 0 0 0 0 0 0 0 0
0 0 0 0 0 1 1 0 3 0 0 0 0 0 1 4 0 0 4 13 11 0 0 2 0 0 0 0 0 0 0 0 0 0 0 0 0 0 0 0 0 0 0 0 0
0 0 0 3 0 2 2 0 0 0 6 4 1 0 0 0 0 0 0 0 13 0 0 3 3 0 0 0 0 0 0 0 0 0 0 0 0 0 0 0 0 0 0 0 0
0 0 2 0 0 1 2 0 2 3 0 4 1 3 8 2 0 0 6 5 9 4 5 0 1 0 0 0 0 0 0 0 0 0 0 0 0 0 0 0 0 0 0 0 0
0 1 4 4 1 0 0 0 1 1 5 1 1 3 5 5 5 3 0 9 0 1 2 0 1 0 0 0 0 0 0 0 0 0 0 0 0 0 0 0 0 0 0 0 0
0 5 7 0 1 1 0 0 0 2 0 7 5 3 3 5 7 2 0 1 2 0 1 2 0 0 0 0 0 0 0 0 0 0 0 0 0 0 0 0 0 0 0 0 0
CIN
-0 -0 -0 -0 -0 -0 -0 -0 -0 -0 -0 -0 -0 -0 -0 -0 -0 -0 -0 -0 -0 -0 -0 -0 -0 -0 -0 -0 -0 -0 -0 -0 -0 -0 -0 -0 -0 -0 -0 -0 -0 -0 -0 -0 -0
-0 -0 -0 -0 -0 -0 -0 -0 -0 -0 -0 -0 -0 -0 -0 -0 -0 -0 -0 -0 -0 -0 -0 -0 -0 -0 -0 -0 -0 -0 -0 -0 -0 -0 -0 -0 -0 -0 -0 -0 -0 -0 -0 -0 -0
-0 -0 -0 -0 -0 -0 -0 -0 -0 -0 -0 -0 -0 -0 -0 -0 -0 -0 -0 -0 -0 -0 -0 -0 -0 -0 -0 -0 -0 -0 -0 -0 -0 -0 -0 -0 -0 -0 -0 -0 -0 -0 -0 -116 -0
-0 -0 -0 -0 -0 -0 -0 -0 -0 -0 -0 -0 -0 -0 -0 -0 -0 -0 -0 -0 -0 -0 -0 -0 -0 -0 -0 -0 -0 -0 -0 -0 -0 -0 -0 -0 -0 -0 -0 -0 -0 -0 -0 -0 -0
-0 -0 -0 -0 -0 -0 -0 -0 -0 -1 -0 -0 -0 -0 -0 -0 -0 -0 -0 -0 -0 -0 -0 -0 -0 -0 -0 -0 -0 -0 -0 -0 -0 -0 -0 -0 -0 -0 -0 -0 -0 -0 -0 -0 -0
-0 -0 -0 -0 -1 -0 -0 -0 -0 -0 -0 -0 -0 -0 -0 -0 -0 -0 -0 -0 -0 -0 -0 -0 -0 -0 -0 -0 -0 -0 -0 -0 -0 -0 -0 -0 -0 -0 -0 -0 -0 -0 -0 -0 -0
-0 -0 -0 -0 -0 -0 -0 -0 -0 -0 -0 -0 -0 -0 -0 -0 -0 -0 -0 -0 -0 -0 -0 -0 -0 -0 -0 -0 -0 -0 -0 -0 -0 -0 -0 -0 -0 -0 -0 -0 -0 -0 -0 -0 -0
-0 -0 -0 -0 -0 -0 -0 -0 -0 -0 -0 -0 -0 -0 -0 -0 -0 -0 -0 -0 -0 -0 -0 -0 -0 -0 -0 -0 -0 -0 -0 -0 -0 -0 -0 -0 -0 -0 -0 -0 -0 -0 -0 -0 -0
-0 -0 -0 -0 -0 -0 -0 -0 -0 -0 -0 -0 -0 -0 -0 -0 -0 -0 -0 -0 -0 -0 -0 -0 -0 -0 -0 -0 -0 -0 -0 -0 -0 -0 -0 -0 -0 -0 -0 -0 -0 -0 -0 -0 -0
-0 -0 -1 -0 -0 -0 -0 -0 -0 -0 -0 -0 -0 -0 -0 -0 -0 -0 -0 -0 -0 -0 -0 -0 -0 -0 -0 -0 -0 -0 -0 -0 -0 -0 -0 -0 -0 -0 -0 -0 -0 -0 -0 -0 -0
-0 -0 -0 -1 -0 -0 -0 -0 -0 -0 -0 -0 -0 -0 -0 -0 -0 -0 -0 -0 -0 -0 -0 -0 -0 -0 -0 -0 -0 -0 -0 -0 -0 -0 -0 -0 -0 -0 -0 -0 -0 -0 -0 -0 -0
-0 -0 -0 -0 -0 -0 -0 -0 -0 -1 -0 -0 -0 -0 -0 -0 -0 -0 -0 -0 -0 -0 -0 -0 -0 -0 -0 -0 -0 -0 -0 -0 -0 -0 -0 -0 -0 -0 -0 -0 -0 -0 -0 -0 -0
-0 -0 -0 -0 -0 -0 -0 -0 -0 -0 -0 -0 -0 -0 -0 -0 -0 -0 -0 -0 -0 -0 -0 -0 -0 -0 -0 -0 -0 -0 -0 -0 -0 -0 -0 -0 -0 -0 -0 -0 -0 -0 -0 -0 -0
-0 -0 -0 -0 -0 -0 -0 -0 -0 -0 -0 -0 -0 -0 -0 -0 -0 -0 -0 -0 -0 -0 -0 -0 -0 -0 -0 -0 -0 -0 -0 -0 -0 -0 -0 -0 -0 -0 -0 -0 -0 -0 -0 -0 -0
-0 -0 -1 -2 -3 -0 -0 -0 -0 -0 -0 -0 -29 -0 -0 -0 -0 -0 -0 -0 -0 -0 -0 -0 -0 -0 -0 -0 -0 -0 -0 -0 -0 -0 -0 -0 -0 -0 -0 -0 -0 -0 -0 -0 -0
-0 -0 -0 -0 -0 -0 -0 -0 -0 -0 -0 -0 -4 -0 -0 -0 -0 -0 -0 -0 -0 -0 -0 -0 -0 -0 -0 -0 -0 -0 -0 -0 -0 -0 -0 -0 -0 -0 -0 -0 -0 -0 -0 -0 -0
-0 -0 -0 -0 -0 -0 -0 -0 -0 -0 -0 -1 -0 -0 -0 -0 -0 -0 -0 -0 -0 -0 -0 -0 -0 -0 -0 -0 -0 -0 -0 -0 -0 -0 -0 -0 -0 -0 -0 -0 -0 -0 -0 -0 -0
-0 -0 -0 -0 -0 -3 -0 -0 -0 -0 -0 -0 -0 -0 -0 -0 -0 -0 -0 -0 -0 -0 -0 -0 -0 -0 -0 -0 -0 -0 -0 -0 -0 -0 -0 -0 -0 -0 -0 -0 -0 -0 -0 -0 -0
-0 -0 -0 -0 -0 -7 -1 -0 -0 -1 -0 -0 -0 -0 -0 -0 -0 -0 -0 -0 -0 -0 -0 -0 -0 -0 -0 -0 -0 -0 -0 -0 -0 -0 -0 -0 -0 -0 -0 -0 -0 -0 -0 -0 -0
-0 -0 -0 -1 -36 -1 -0 -0 -0 -7 -0 -5 -2 -0 -0 -0 -3 -0 -0 -0 -0 -0 -0 -0 -0 -0 -0 -0 -0 -0 -0 -0 -0 -0 -0 -0 -0 -0 -0 -0 -0 -0 -0 -0 -0
-0 -0 -0 -25 -9 -0 -0 -0 -0 -3 -0 -10 -5 -1 -0 -0 -1 -0 -0 -0 -0 -0 -0 -0 -0 -0 -0 -0 -0 -0 -0 -0 -0 -0 -0 -0 -0 -0 -0 -0 -0 -0 -0 -0 -0
-0 -0 -0 -4 -0 -0 -0 -0 -0 -0 -5 -6 -13 -6 -3 -5 -0 -0 -0 -3 -2 -0 -0 -0 -0 -0 -0 -0 -0 -0 -0 -0 -0 -0 -0 -0 -0 -0 -0 -0 -0 -0 -0 -0 -0
-0 -0 -0 -0 -0 -0 -0 -0 -0 -0 -0 -0 -0 -0 -10 -4 -0 -0 -1 -3 -4 -0 -0 -0 -3 -0 -0 -0 -0 -0 -0 -0 -0 -0 -0 -0 -0 -0 -0 -0 -0 -0 -0 -0 -0
-0 -0 -0 -3 -0 -0 -0 -0 -0 -0 -0 -0 -1 -0 -0 -0 -0 -0 -0 -0 -5 -0 -2 -0 -0 -0 -0 -0 -0 -0 -0 -0 -0 -0 -0 -0 -0 -0 -0 -0 -0 -0 -0 -0 -0
-0 -0 -1 -0 -0 -0 -0 -0 -0 -0 -0 -2 -2 -7 -0 -0 -0 -0 -1 -3 -10 -1 -2 -0 -0 -0 -0 -0 -0 -0 -0 -0 -0 -0 -0 -0 -0 -0 -0 -0 -0 -0 -0 -0 -0
-0 -1 -1 -1 -2 -0 -0 -0 -0 -0 -1 -0 -0 -1 -0 -0 -0 -0 -1 -2 -0 -2 -0 -0 -0 -0 -0 -0 -0 -0 -0 -0 -0 -0 -0 -0 -0 -0 -0 -0 -0 -0 -0 -0 -0
-0 -9 -2 -0 -0 -0 -0 -0 -0 -0 -0 -0 -0 -0 -0 -10 -3 -0 -0 -0 -0 -0 -0 -0 -0 -0 -0 -0 -0 -0 -0 -0 -0 -0 -0 -0 -0 -0 -0 -0 -0 -0 -0 -0 -0
Wind_Speed
31 31 32 33 34 34 34 35 36 36 37 38 38 38 39 39 40 33 35 25 20 22 17 16 16 14 15 15 16 16 24 24 20 22 24 18 18 19 21 23 21 18 17 22 23
31 31 32 32 33 34 35 36 36 37 37 37 38 38 39 40 39 43 37 35 33 27 20 20 21 16 20 20 18 19 25 23 22 23 27 25 26 27 27 29 28 22 21 23 25
33 33 34 35 35 35 35 35 36 36 37 37 37 38 39 39 41 40 31 31 35 28 27 25 27 25 30 26 25 26 30 23 35 29 29 33 31 29 32 37 32 32 36 37 31
34 34 35 35 36 37 36 36 37 37 37 37 37 38 38 32 42 24 27 29 31 24 26 29 26 31 33 34 28 37 33 31 37 34 34 35 34 32 34 33 32 39 37 39 37
35 35 36 36 36 37 38 38 38 37 37 37 36 36 33 37 37 26 30 29 26 23 27 27 27 29 34 32 32 39 38 36 37 41 38 38 33 37 49 36 38 42 42 39 37
36 37 37 37 38 38 38 39 39 38 38 37 35 34 33 47 32 33 34 32 28 25 25 28 28 30 36 36 35 35 36 41 42 41 42 38 35 37 32 37 51 51 49 47 42
37 38 38 39 39 39 39 40 40 41 40 36 33 32 40 42 31 31 34 30 29 29 31 29 33 29 31 35 35 36 38 36 36 34 38 40 44 39 35 41 46 48 50 48 43
38 38 39 40 41 41 41 42 43 44 41 37 31 31 44 33 34 40 38 35 31 35 32 31 30 35 32 29 31 35 36 42 34 32 31 28 49 43 39 41 45 44 41 41 38
38 38 39 40 40 41 42 42 44 36 32 27 27 30 47 33 35 34 34 37 29 28 31 29 30 33 31 36 39 37 44 39 35 26 30 31 46 37 38 42 45 44 41 35 42
39 40 40 41 41 41 42 44 33 25 24 21 26 35 33 35 27 31 28 28 31 26 27 31 29 34 35 35 48 40 40 38 38 30 32 38 43 44 45 42 43 44 41 39 35
39 40 40 40 40 40 41 32 32 34 31 36 37 41 45 36 35 32 25 24 27 30 36 29 35 40 36 36 40 47 46 46 38 32 38 44 45 49 46 41 44 41 39 31 25
39 39 39 39 40 38 29 30 28 31 45 39 42 45 46 39 45 38 29 28 28 38 32 32 42 38 32 37 39 43 45 47 45 41 39 50 55 48 45 47 40 37 31 30 27
39 38 38 38 38 26 32 28 25 29 39 42 35 38 37 33 43 47 28 31 33 34 37 40 41 34 34 33 33 38 43 44 50 38 38 42 54 51 42 37 38 35 31 31 30
39 37 36 38 28 30 30 21 27 25 40 39 27 22 24 27 38 36 37 32 34 38 34 39 40 31 34 33 29 33 33 49 48 40 43 32 53 48 44 44 37 34 30 24 20
38 38 35 32 30 28 24 24 26 19 42 23 20 17 23 25 36 28 31 40 42 33 32 37 33 37 32 28 26 37 31 33 38 40 42 41 41 45 29 38 37 34 27 24 20
40 39 36 28 24 22 22 24 17 24 33 23 18 25 26 25 30 29 28 40 39 38 38 38 29 31 36 31 27 24 26 24 29 36 42 47 43 46 37 37 34 32 26 21 20
43 40 31 24 26 21 21 18 21 26 23 23 26 29 30 28 27 27 30 36 43 45 45 38 38 28 29 29 24 21 22 24 26 29 34 33 31 40 28 29 30 35 28 21 15
43 33 24 21 22 18 16 16 24 22 24 27 30 29 28 25 24 32 27 33 44 39 40 42 40 38 29 30 26 22 22 26 23 23 39 27 40 36 36 34 20 36 30 15 11
35 25 26 24 17 14 14 17 20 21 23 29 31 28 25 24 25 24 24 27 27 47 39 43 48 27 30 26 24 26 25 32 35 25 29 29 32 32 32 29 30 16 16 12 4
28 24 28 23 18 17 17 19 19 22 28 26 26 23 26 26 25 23 24 23 29 28 31 33 38 38 31 28 30 26 23 26 30 44 40 29 32 30 18 12 10 8 5 5 3
27 24 25 20 12 15 19 19 22 23 25 21 24 26 25 27 25 24 23 24 20 26 32 37 32 31 30 39 34 31 26 28 27 32 31 28 31 28 25 10 23 2 2 3 13
25 24 23 22 16 18 19 12 14 14 21 23 20 25 25 24 26 24 26 20 21 23 31 34 36 36 44 35 33 38 37 31 32 30 36 31 30 18 19 12 12 7 4 6 12
24 18 18 17 21 23 22 11 14 11 26 22 21 20 21 22 24 24 23 20 18 20 23 29 41 44 33 33 37 50 42 38 35 31 33 30 26 19 14 14 13 9 4 6 11
22 22 18 17 19 22 21 7 17 10 15 25 19 20 21 23 25 25 25 24 22 24 21 25 37 45 42 37 30 43 44 39 39 40 31 37 31 29 20 18 16 11 3 6 10
23 21 18 14 12 3 7 8 16 25 18 10 21 21 22 23 26 26 24 25 25 22 22 24 36 41 44 36 34 31 44 46 49 42 42 34 38 38 31 26 22 16 8 4 9
21 22 19 10 10 8 10 10 2 18 10 19 24 25 26 25 27 32 28 25 23 22 24 22 32 35 48 38 35 38 33 44 49 44 42 33 36 36 43 30 22 19 10 11 17
16 15 16 14 14 13 12 9 2 10 5 4 23 27 25 25 24 27 29 29 29 27 25 26 27 34 43 35 34 42 40 35 38 40 45 44 30 20 26 34 28 22 13 23 23
Wind_Direction
313 311 308 302 300 300 299 296 292 293 292 290 288 288 287 289 288 280 275 279 287 286 283 286 275 273 280 282 286 292 284 283 291 296 302 312 317 327 328 327 327 330 334 333 343
318 317 313 310 309 304 299 297 296 294 293 291 289 290 289 290 283 275 274 275 275 277 272 270 270 270 270 277 280 276 276 280 290 296 296 302 307 314 316 318 316 322 325 330 334
318 316 314 311 309 308 305 301 297 296 295 293 291 290 289 288 281 277 284 279 273 268 266 270 270 265 268 272 269 275 269 272 282 292 296 294 299 308 310 305 311 313 311 314 321
319 318 316 314 312 309 307 305 300 298 295 294 294 291 289 286 273 283 289 286 285 260 259 264 262 262 264 263 265 269 273 274 280 289 293 293 299 301 303 302 307 306 309 309 311
319 318 316 315 313 311 310 307 304 301 299 297 294 292 290 277 270 290 291 291 290 267 253 249 251 255 262 267 266 267 268 275 280 282 289 292 294 296 292 305 305 302 303 304 305
322 321 319 317 314 312 309 307 305 303 299 297 296 293 284 273 282 281 281 285 279 274 262 253 262 264 270 268 264 273 271 272 276 281 285 291 291 297 301 307 298 297 297 296 298
326 323 321 319 316 314 311 308 305 301 299 297 295 292 280 272 284 284 281 275 274 270 263 263 258 266 271 271 269 271 272 276 277 280 283 290 289 292 304 307 304 302 298 296 294
328 325 323 319 317 315 312 309 306 301 297 294 293 291 279 289 284 276 273 274 270 262 266 265 263 264 267 274 271 269 272 271 279 279 285 287 288 296 305 309 308 309 306 302 298
332 330 328 325 322 319 316 313 309 308 304 298 294 289 284 293 281 279 271 266 267 263 259 264 258 259 263 262 266 266 267 270 277 277 286 285 292 300 307 308 311 311 304 305 281
332 330 329 327 325 322 318 314 313 314 315 306 296 287 285 287 289 287 278 269 259 256 254 252 254 254 254 250 254 261 268 272 273 282 284 286 290 297 302 308 312 292 277 270 256
335 334 333 332 330 328 323 323 311 303 303 291 288 282 283 287 286 279 281 272 253 245 243 241 247 238 231 234 263 266 266 269 275 282 283 284 291 294 299 307 288 274 268 244 232
339 337 335 333 331 331 335 323 321 313 297 295 287 280 279 282 276 272 271 260 251 243 236 246 240 230 248 258 257 261 264 266 272 278 283 284 284 286 291 290 277 270 246 239 241
339 337 335 335 333 338 329 323 332 326 301 299 294 288 283 277 267 262 258 259 253 244 230 235 229 249 249 254 252 253 258 265 266 279 284 286 278 273 286 288 277 260 243 263 285
344 341 339 337 339 335 328 335 331 331 301 301 300 300 302 284 271 267 250 252 252 246 241 249 249 247 245 240 247 257 264 263 263 271 275 287 277 270 280 278 268 255 271 297 308
348 344 341 342 334 333 337 337 331 332 293 312 309 321 313 288 288 270 255 240 246 247 237 245 247 236 244 235 244 267 271 264 261 268 274 273 282 266 287 273 253 248 276 294 307
346 342 340 345 343 339 339 334 338 307 290 305 314 311 302 299 296 275 265 241 246 250 246 247 257 246 242 254 250 268 264 260 264 266 269 256 266 252 267 263 261 253 277 296 306
344 343 346 351 342 350 342 335 309 296 310 301 298 303 303 297 292 287 262 238 233 234 239 243 244 254 249 243 244 237 249 256 259 258 266 264 263 240 277 271 269 243 262 293 314
347 356 7 5 360 355 347 327 299 307 303 304 300 303 295 300 292 286 268 246 234 239 240 235 239 238 240 241 236 220 225 250 253 255 246 264 238 253 251 234 200 225 260 294 318
2 15 14 13 30 52 9 329 314 312 314 305 301 295 293 292 290 289 269 254 245 231 240 237 239 247 238 240 223 234 212 245 249 264 258 258 255 249 253 265 222 170 275 290 337
16 19 15 26 52 64 24 345 332 319 307 308 302 299 286 288 280 279 265 258 246 244 247 241 239 238 234 230 232 234 224 235 243 231 237 260 251 251 289 200 275 286 142 303 90
25 20 22 25 84 66 25 14 345 337 324 329 306 288 285 281 277 273 255 269 255 252 245 235 240 232 222 227 223 229 211 240 244 247 250 258 248 256 273 263 173 172 354 99 127
35 37 33 37 324 351 24 70 50 38 12 337 325 285 279 281 269 270 259 267 265 261 241 234 236 232 228 236 233 230 234 234 244 249 248 251 253 285 267 281 271 292 310 98 119
39 55 58 322 346 340 336 77 58 333 324 339 324 301 287 281 270 266 268 264 266 257 244 239 228 225 229 232 232 228 233 237 246 252 249 250 258 273 282 275 272 295 319 102 115
48 51 64 75 39 320 305 146 346 63 3 342 328 299 291 283 263 262 265 261 263 257 254 251 230 226 225 229 237 231 232 236 239 244 252 246 249 251 257 264 268 285 308 114 121
51 56 63 64 75 221 232 90 271 318 42 73 348 327 305 290 270 260 261 264 262 252 254 248 229 230 231 237 238 239 234 234 234 242 243 247 242 234 239 249 263 278 276 154 131
53 52 54 66 75 76 89 76 81 25 47 279 322 294 293 284 266 256 263 261 254 252 247 248 233 236 226 234 239 238 242 235 231 236 238 247 244 243 232 249 257 270 255 152 146
53 56 54 59 61 66 79 78 74 265 82 103 279 289 284 284 283 267 258 256 254 254 246 241 239 232 223 231 240 236 236 240 239 238 228 229 238 253 238 232 241 253 249 157 155